TimeEST,TemperatureF,Dew PointF,Humidity,Sea Level PressureIn,VisibilityMPH,Wind Direction,Wind SpeedMPH,Gust SpeedMPH,PrecipitationIn,Events,Conditions,WindDirDegrees,DateUTC
12:54 AM,17.1,10.9,77,30.33,10.0,WNW,8.1,-,N/A,,Overcast,290,2013-02-22 05:54:00
1:54 AM,17.1,12.0,81,30.32,10.0,West,6.9,-,N/A,,Overcast,280,2013-02-22 06:54:00
2:26 AM,15.8,10.4,79,30.23,10.0,WSW,9.2,-,N/A,,Partly Cloudy,250,2013-02-22 07:26:00
2:54 AM,17.1,12.0,81,30.30,10.0,SW,4.6,-,N/A,,Scattered Clouds,230,2013-02-22 07:54:00
3:54 AM,16.0,12.0,84,30.30,10.0,Calm,Calm,-,N/A,,Clear,0,2013-02-22 08:54:00
4:54 AM,16.0,12.9,88,30.35,10.0,WSW,6.9,-,N/A,,Clear,240,2013-02-22 09:54:00
5:54 AM,15.1,12.0,88,30.38,10.0,SW,5.8,-,N/A,,Clear,230,2013-02-22 10:54:00
6:54 AM,12.9,10.0,88,30.38,10.0,NE,4.6,-,N/A,,Clear,50,2013-02-22 11:54:00
7:54 AM,17.1,12.0,81,30.41,10.0,WSW,6.9,-,N/A,,Clear,250,2013-02-22 12:54:00
8:54 AM,21.0,15.1,78,30.40,10.0,Calm,Calm,-,N/A,,Clear,0,2013-02-22 13:54:00
9:54 AM,25.0,16.0,69,30.38,10.0,Calm,Calm,-,N/A,,Clear,0,2013-02-22 14:54:00
10:54 AM,28.9,17.1,61,30.34,10.0,Variable,3.5,-,N/A,,Clear,0,2013-02-22 15:54:00
11:54 AM,30.9,18.0,59,30.35,10.0,SW,3.5,-,N/A,,Clear,220,2013-02-22 16:54:00
12:54 PM,32.0,19.0,59,30.33,10.0,West,5.8,-,N/A,,Clear,270,2013-02-22 17:54:00
2:54 PM,37.0,18.0,46,30.27,10.0,Calm,Calm,-,N/A,,Clear,0,2013-02-22 19:54:00
3:54 PM,36.0,18.0,48,30.28,10.0,SE,8.1,-,N/A,,Clear,140,2013-02-22 20:54:00
4:54 PM,35.1,18.0,50,30.27,10.0,SE,10.4,-,N/A,,Clear,140,2013-02-22 21:54:00
5:54 PM,33.1,18.0,54,30.29,10.0,SE,6.9,-,N/A,,Scattered Clouds,140,2013-02-22 22:54:00
6:54 PM,33.1,18.0,54,30.30,10.0,SSE,4.6,-,N/A,,Mostly Cloudy,160,2013-02-22 23:54:00
7:54 PM,32.0,19.0,59,30.29,10.0,South,3.5,-,N/A,,Overcast,190,2013-02-23 00:54:00
8:54 PM,32.0,19.0,59,30.27,10.0,SE,9.2,-,N/A,,Overcast,140,2013-02-23 01:54:00
9:54 PM,30.9,19.0,61,30.27,10.0,SSW,5.8,-,N/A,,Overcast,210,2013-02-23 02:54:00
10:54 PM,30.9,19.9,64,30.26,10.0,SE,8.1,-,N/A,,Overcast,130,2013-02-23 03:54:00
11:54 PM,30.0,21.0,69,30.25,10.0,SE,9.2,-,N/A,,Overcast,140,2013-02-23 04:54:00